Regional Weather Roundup
Issued by NWS Green Bay, WI

Home | Current Version | Previous Version | Text Only | Print | Product List | Glossary On
Versions: 1 2 3 4 5 6 7 8 9 10 11 12 13 14 15 16 17 18 19 20 21 22 23 24 25 26 27 28 29 30 31 32 33 34 35 36 37 38 39 40 41 42 43 44 45 46 47 48 49 50
000
ASUS43 KGRB 222359
RWRGRB

NORTH-CENTRAL AND NORTHEAST WISCONSIN REGIONAL WEATHER ROUNDUP
NATIONAL WEATHER SERVICE GREEN BAY WI
700 PM CDT TUE APR 22 2014

WIZ005-009-010>012-018-019-230100-
NORTH CENTRAL WISCONSIN

CITY           SKY/WX    TMP DP  RH WIND       PRES   REMARKS
IRONWOOD       CLEAR     45  23  42 NW6       30.04S
MANITOWISH WTR NOT AVBL
ARBOR VITAE    NOT AVBL
EAGLE RIVER    NOT AVBL
LAND O LAKES   NOT AVBL
RHINELANDER    PTCLDY    42  23  46 N9        30.06S
PHILLIPS       NOT AVBL
ANTIGO         NOT AVBL
TOMAHAWK       NOT AVBL
MERRILL        NOT AVBL
$$

WIZ013-073-230100-
NORTHEAST WISCONSIN

CITY           SKY/WX    TMP DP  RH WIND       PRES   REMARKS
IRON MOUNTAIN  MOCLDY    39  25  57 N13       30.04R
MARINETTE      CLOUDY    43  27  52 N14G22    30.04R
$$

WIZ017-030-035>037-045-230100-
CENTRAL WISCONSIN

CITY           SKY/WX    TMP DP  RH WIND       PRES   REMARKS
MEDFORD        NOT AVBL
WAUSAU         CLEAR     47  24  40 N12G21    30.03S
MOSINEE        CLEAR     46  25  42 N12G18    30.04S
MARSHFIELD     CLEAR     49  23  36 N10       30.04R
WISC RAPIDS    CLEAR     50  22  33 N14       30.04R
STEVENS POINT  NOT AVBL
WAUPACA        NOT AVBL
SHAWANO        NOT AVBL
CLINTONVILLE   NOT AVBL
$$

WIZ038-039-048-051-230100-
FOX VALLEY

CITY           SKY/WX    TMP DP  RH WIND       PRES   REMARKS
NWS GREEN BAY  CLEAR     47  29  49 N17       30.04R
APPLETON       PTCLDY    48  25  40 N15       30.02S
OSHKOSH        CLEAR     49  24  37 N16       30.02R
FOND DU LAC    CLEAR     48  29  47 NE13      30.02R
$$

WIZ022-050-052-230100-
EAST CENTRAL WISCONSIN

CITY           SKY/WX    TMP DP  RH WIND       PRES   REMARKS
STURGEON BAY   CLOUDY    41  27  56 N17G23    30.04R
MANITOWOC      NOT AVBL
SHEBOYGAN      CLEAR     47  26  44 N15G22    30.01R
$$

LMZ563-521-522-541>543-230100-
LAKESHORE

STATION/POSITION TIME  TEMP    WIND        PRES    VSBY  WAVE
                       AIR SEA DIR/SP/G                  HT/PER
                 (UTC) (F)     (DEG/KT/KT) (MB)    (MI)  (FT/S)
SHEBOYGAN LKSHOR 2300   44      10/ 13/ 14 1016.8R
KEWAUNEE LKSHORE 2300   45     340/  8/ 14 1017.0R
NORTHPORT PIER   2300   35     340/ 11/ 14 1016.6R
SISTER BAY LKSHO 2300   37     360/ 12/ 15   N/A
MENOMINEE LKSHOR 2300   40     330/ 19/ 23 1017.6R
$$



USA.gov is the U.S. government's official web portal to all federal, state and local government web resources and services.